Grant County, OR

8:57 AM PDT on August 17, 2017 (GMT -0700)
Grant County Regional

Weather History for KGCD - September, 2013

Change the Weather History Date:

Thursday, September 12, 2013

  Actual Average (KBNO) Record (KBNO)
Temperature  
Mean Temperature 73 °F -  
Max Temperature 89 °F 74 °F 94 °F (2015)
Min Temperature 57 °F 36 °F 25 °F (2012)
Cooling Degree Days 8    
Growing Degree Days 23 (Base 50)    
Moisture  
Dew Point 42 °F    
Average Humidity 34    
Maximum Humidity 56    
Minimum Humidity 18    
Precipitation  
Precipitation 0.00 in - - ()
Sea Level Pressure  
Sea Level Pressure 30.05 in    
Wind  
Wind Speed 6 mph (East)    
Max Wind Speed 9 mph    
Max Gust Speed -    
Visibility 10 miles    
Events      
Averages and records for this station are not official NWS values.
T = Trace of Precipitation, MM = Missing Value Source: NWS Daily Summary

Daily Weather History Graph

Daily Weather History Graph

Search for Another Location

Airport or City:

Trip Planner

Search our weather history database for the weather conditions in past years. The results will help you decide how hot, cold, wet, or windy it might be!

Date:

Astronomy

Sep. 12, 2013 Rise Set
Actual Time 6:31 AM PDT 7:11 PM PDT
Civil Twilight 6:02 AM PDT 7:40 PM PDT
Nautical Twilight 5:27 AM PDT 8:15 PM PDT
Astronomical Twilight 4:51 AM PDT 8:51 PM PDT
Moon 2:19 PM PDT (9/12) 11:57 PM PDT (9/12)
Length of Visible Light 13h 38m
Length of Day
12h 39m
Waxing Crescent, 51% of the Moon is Illuminated
Sep 12
Waxing Crescent
Sep 19
Full
Sep 26
Last Quarter
Oct 4
New
Oct 11
First Quarter

Hourly Weather History & Observations

Time (PDT) Temp. Dew Point Humidity Pressure Visibility Wind Dir Wind Speed Gust Speed Precip Events Conditions
12:15 AM 67.1 °F 41.9 °F 40% 30.08 in 10.0 mi East 8.1 mph - N/A   Clear
12:35 AM 63.7 °F 42.1 °F 45% 30.08 in 10.0 mi East 6.9 mph - N/A   Clear
12:55 AM 66.4 °F 41.7 °F 41% 30.08 in 10.0 mi ESE 9.2 mph - N/A   Clear
1:15 AM 64.2 °F 41.7 °F 44% 30.08 in 10.0 mi East 9.2 mph - N/A   Clear
1:35 AM 62.2 °F 41.9 °F 47% 30.08 in 10.0 mi East 6.9 mph - N/A   Clear
1:55 AM 62.1 °F 41.9 °F 48% 30.08 in 10.0 mi East 8.1 mph - N/A   Clear
2:15 AM 59.7 °F 41.9 °F 52% 30.08 in 10.0 mi ESE 5.8 mph - N/A   Clear
2:35 AM 60.4 °F 41.9 °F 50% 30.08 in 10.0 mi ESE 8.1 mph - N/A   Clear
2:55 AM 61.0 °F 41.9 °F 49% 30.09 in 10.0 mi ESE 9.2 mph - N/A   Clear
3:15 AM 60.4 °F 41.9 °F 50% 30.09 in 10.0 mi ESE 8.1 mph - N/A   Clear
3:35 AM 61.7 °F 41.9 °F 48% 30.09 in 10.0 mi ESE 8.1 mph - N/A   Clear
3:55 AM 61.3 °F 41.9 °F 49% 30.09 in 10.0 mi ESE 8.1 mph - N/A   Clear
4:15 AM 61.2 °F 41.9 °F 49% 30.09 in 10.0 mi ESE 9.2 mph - N/A   Clear
4:35 AM 58.8 °F 41.9 °F 53% 30.09 in 10.0 mi ESE 5.8 mph - N/A   Clear
4:55 AM 57.4 °F 41.9 °F 56% 30.09 in 10.0 mi SE 3.5 mph - N/A   Clear
5:15 AM 60.1 °F 42.3 °F 52% 30.08 in 10.0 mi West 3.5 mph - N/A   Clear
5:35 AM 59.9 °F 42.3 °F 52% 30.09 in 10.0 mi Calm Calm - N/A   Clear
5:55 AM 59.2 °F 41.9 °F 53% 30.09 in 10.0 mi ESE 9.2 mph - N/A   Clear
6:15 AM 59.2 °F 41.9 °F 53% 30.09 in 10.0 mi ESE 6.9 mph - N/A   Clear
6:35 AM 59.0 °F 41.9 °F 53% 30.09 in 10.0 mi Calm Calm - N/A   Clear
6:55 AM 58.6 °F 42.1 °F 54% 30.10 in 10.0 mi ESE 9.2 mph - N/A   Clear
7:15 AM 60.4 °F 42.3 °F 51% 30.10 in 10.0 mi ESE 5.8 mph - N/A   Clear
7:35 AM 61.3 °F 42.8 °F 51% 30.10 in 10.0 mi ESE 4.6 mph - N/A   Clear
7:55 AM 63.3 °F 42.6 °F 47% 30.10 in 10.0 mi ESE 9.2 mph - N/A   Clear
8:15 AM 65.1 °F 42.8 °F 44% 30.11 in 10.0 mi ESE 8.1 mph - N/A   Clear
8:35 AM 66.0 °F 43.0 °F 43% 30.11 in 10.0 mi ESE 5.8 mph - N/A   Clear
8:55 AM 69.6 °F 43.0 °F 38% 30.10 in 10.0 mi East 5.8 mph - N/A   Clear
9:15 AM 69.8 °F 43.2 °F 38% 30.10 in 10.0 mi ESE 4.6 mph - N/A   Clear
9:35 AM 70.7 °F 43.7 °F 38% 30.10 in 10.0 mi East 4.6 mph - N/A   Clear
9:55 AM 72.1 °F 43.7 °F 36% 30.10 in 10.0 mi Calm Calm - N/A   Clear
10:15 AM 73.9 °F 43.9 °F 34% 30.10 in 10.0 mi Calm Calm - N/A   Clear
10:35 AM 75.7 °F 43.9 °F 32% 30.09 in 10.0 mi Calm Calm - N/A   Clear
10:55 AM 79.0 °F 44.4 °F 29% 30.09 in 10.0 mi Calm Calm - N/A   Clear
11:15 AM 80.1 °F 44.4 °F 28% 30.08 in 10.0 mi Calm Calm - N/A   Clear
11:35 AM 81.5 °F 43.2 °F 26% 30.07 in 10.0 mi ENE 5.8 mph - N/A   Clear
11:55 AM 82.0 °F 43.0 °F 25% 30.07 in 10.0 mi North 3.5 mph - N/A   Clear
12:15 PM 82.9 °F 42.8 °F 24% 30.06 in 10.0 mi ESE 6.9 mph - N/A   Clear
12:35 PM 84.6 °F 42.8 °F 23% 30.05 in 10.0 mi North 3.5 mph - N/A   Clear
12:55 PM 86.2 °F 42.6 °F 22% 30.05 in 10.0 mi NE 6.9 mph - N/A   Clear
1:15 PM 86.0 °F 40.6 °F 20% 30.04 in 10.0 mi NE 5.8 mph - N/A   Clear
1:35 PM 86.4 °F 40.3 °F 20% 30.03 in 10.0 mi North 3.5 mph - N/A   Clear
1:55 PM 86.5 °F 41.0 °F 20% 30.03 in 10.0 mi North 4.6 mph - N/A   Clear
2:15 PM 86.2 °F 40.1 °F 20% 30.02 in 10.0 mi Calm Calm - N/A   Clear
2:35 PM 87.1 °F 40.3 °F 19% 30.01 in 10.0 mi West 3.5 mph - N/A   Clear
2:55 PM 86.2 °F 40.3 °F 20% 30.01 in 10.0 mi Calm Calm - N/A   Clear
3:15 PM 86.5 °F 40.3 °F 20% 30.01 in 10.0 mi Calm Calm - N/A   Clear
3:35 PM 86.5 °F 41.0 °F 20% 30.00 in 10.0 mi East 3.5 mph - N/A   Clear
3:55 PM 86.9 °F 42.4 °F 21% 30.00 in 10.0 mi SSE 6.9 mph - N/A   Clear
4:15 PM 87.8 °F 43.9 °F 22% 29.99 in 10.0 mi ESE 4.6 mph - N/A   Clear
4:35 PM 88.5 °F 41.4 °F 19% 29.98 in 10.0 mi Calm Calm - N/A   Clear
4:55 PM 88.5 °F 41.5 °F 19% 29.98 in 10.0 mi Calm Calm - N/A   Clear
5:15 PM 89.1 °F 39.7 °F 18% 29.98 in 10.0 mi WSW 5.8 mph - N/A   Clear
5:35 PM 87.1 °F 40.8 °F 20% 29.98 in 10.0 mi Calm Calm - N/A   Scattered Clouds
5:55 PM 85.5 °F 41.7 °F 21% 29.98 in 10.0 mi NNW 3.5 mph - N/A   Scattered Clouds
6:15 PM 84.2 °F 41.7 °F 22% 29.98 in 10.0 mi Calm Calm - N/A   Clear
6:35 PM 83.1 °F 41.9 °F 23% 29.98 in 10.0 mi North 6.9 mph - N/A   Clear
6:55 PM 82.4 °F 41.9 °F 24% 29.98 in 10.0 mi NE 6.9 mph - N/A   Clear
7:15 PM 81.5 °F 41.5 °F 24% 29.99 in 10.0 mi North 4.6 mph - N/A   Clear
7:35 PM 81.0 °F 40.6 °F 24% 29.99 in 10.0 mi North 5.8 mph - N/A   Clear
7:55 PM 80.2 °F 40.6 °F 24% 30.00 in 10.0 mi NNW 5.8 mph - N/A   Clear
8:15 PM 79.7 °F 40.1 °F 24% 30.00 in 10.0 mi West 3.5 mph - N/A   Clear
8:35 PM 79.0 °F 40.3 °F 25% 30.01 in 10.0 mi SW 4.6 mph - N/A   Clear
8:55 PM 78.1 °F 40.1 °F 26% 30.01 in 10.0 mi WSW 6.9 mph - N/A   Clear
9:15 PM 79.7 °F 39.0 °F 23% 30.01 in 10.0 mi NE 6.9 mph - N/A   Clear
9:35 PM 76.5 °F 39.7 °F 27% 30.01 in 10.0 mi SSW 3.5 mph - N/A   Clear
9:55 PM 77.0 °F 39.6 °F 26% 30.01 in 10.0 mi West 5.8 mph - N/A   Clear
10:15 PM 76.3 °F 40.1 °F 27% 30.01 in 10.0 mi WNW 5.8 mph - N/A   Clear
10:35 PM 74.5 °F 40.1 °F 29% 30.01 in 10.0 mi SW 5.8 mph - N/A   Clear
10:55 PM 73.8 °F 40.3 °F 30% 30.01 in 10.0 mi SSW 3.5 mph - N/A   Clear
11:15 PM 74.1 °F 41.9 °F 31% 30.01 in 10.0 mi SW 3.5 mph - N/A   Clear
11:35 PM 73.4 °F 42.1 °F 32% 30.01 in 10.0 mi Calm Calm - N/A   Clear
11:55 PM 74.3 °F 42.1 °F 31% 30.01 in 10.0 mi Calm Calm - N/A   Clear